This is the latest recevied weather packets stored in our database for station/object KR8N. If no packets are shown the sender has not sent any weather packets the latest 10 day(s).
| Time | Temp. | Humidity | Pressure | Rain* | Wind** | Luminosity | Snow |
|---|---|---|---|---|---|---|---|
| 1777993898 | 20.56° C | 45% | 1017.8 hPa | 0 mm | - | 642 W/m² | - |
| 1777993593 | 21.11° C | 42% | 1017.5 hPa | 0 mm | - | 223 W/m² | - |
| 1777993291 | 21.11° C | 48% | 1017.6 hPa | 0 mm | - | 609 W/m² | - |
| 1777992986 | 20.56° C | 46% | 1017.5 hPa | 0 mm | - | 251 W/m² | - |
| 1777992685 | 20.56° C | 43% | 1017.5 hPa | 0 mm | - | 551 W/m² | - |
| 1777992382 | 20.56° C | 45% | 1017.3 hPa | 0 mm | - | 592 W/m² | - |
| 1777992080 | 20.56° C | 45% | 1017.5 hPa | 0 mm | - | 256 W/m² | - |
| 1777991777 | 20.56° C | 43% | 1017.5 hPa | 0 mm | - | 546 W/m² | - |
| 1777991474 | 20.56° C | 45% | 1017.5 hPa | 0 mm | - | 559 W/m² | - |
| 1777991171 | 20.56° C | 49% | 1017.5 hPa | 0 mm | - | 503 W/m² | - |
| 1777990868 | 20° C | 45% | 1017.6 hPa | 0 mm | - | 589 W/m² | - |
| 1777990566 | 20.56° C | 44% | 1017.6 hPa | 0 mm | - | 514 W/m² | - |
| 1777989959 | 20° C | 48% | 1017.8 hPa | 0 mm | - | 520 W/m² | - |
| 1777989656 | 20° C | 47% | 1017.7 hPa | 0 mm | - | 426 W/m² | - |
| 1777989352 | 20° C | 49% | 1017.5 hPa | 0 mm | - | 488 W/m² | - |
| 1777989048 | 19.44° C | 52% | 1017.7 hPa | 0 mm | - | 380 W/m² | - |
| 1777988744 | 18.89° C | 54% | 1017.7 hPa | 0 mm | - | 484 W/m² | - |
| 1777988442 | 18.89° C | 54% | 1017.7 hPa | 0 mm | - | 369 W/m² | - |
| 1777988138 | 18.33° C | 56% | 1017.7 hPa | 0 mm | - | 414 W/m² | - |
| 1777987834 | 17.78° C | 58% | 1017.7 hPa | 0 mm | - | 364 W/m² | - |
| 1777987531 | 17.22° C | 59% | 1017.8 hPa | 0 mm | - | 404 W/m² | - |
| 1777987229 | 16.67° C | 60% | 1017.8 hPa | 0 mm | - | 209 W/m² | - |
| 1777986925 | 16.67° C | 60% | 1017.9 hPa | 0 mm | - | 469 W/m² | - |
| 1777986624 | 16.11° C | 63% | 1017.9 hPa | 0 mm | - | 197 W/m² | - |
| 1777986321 | 16.11° C | 61% | 1017.9 hPa | 0 mm | - | 171 W/m² | - |
* Rain latest hour (hover to see other rain measurements)
** Current wind speed in m/s (hover to see current wind gust speed)